User: anonymous   Login
Location: Malcolm X Square
(37.7810°N, 122.4297°W)
Time: 12:44:17
(UTC+00:00)
Language:

Cosmos 1975 - Orbit

View from above orbital plane
View from above orbital plane
View from above satellite
View from above satellite

Ground track
Ground track

The orbit data is extracted from the following two-line orbital elements,

1 19573U 88093A   24174.10383426  .00005534  00000-0  29834-3 0  9994
2 19573  82.5264  19.2829 0014284 196.9719 163.1038 15.14501344945442
Epoch (UTC): 22 June 2024 02:29:31
Eccentricity: 0.0014284
inclination: 82.5264°
perigee height: 512 km
apogee height: 532 km
right ascension of ascending node: 19.2829°
argument of perigee: 196.9719°
revolutions per day: 15.14501344
mean anomaly at epoch: 163.1038°
orbit number at epoch: 94544

The dashed part of the orbit path shows where the satellite is in the earth's shadow,  

DLR